Weather in Vyucheysky

Russia / Nenets Autonomous Okrug     67°34′10″N   49°03′19″E
temp.,
°C
wind,
m/s
gust,
m/s
humid.,
%
clouds,
%
prec.,
mm/h
press.,
hPa
HPBL,
m
1 march, mon
mon100:00−6sw101590100 0.1 1003425
03:00−5sw131989100 0.3 999552
06:00−4sw121890100 0.3 994528
09:00−2sw131992100 1.1 989692
12:000wsw111697100 1.5 986582
15:000wnw111596100 1.8 986619
18:00−1w10149596 0.3 985449
21:00−2w8139587 0.4 985345
2 march, tue
tue200:00−3wsw8129598 1.0 984326
03:00−5wsw7109494 1.3 985190
06:00−5wsw71094100 0.1 985203
09:00−4w689699 0.8 986232
12:00−4nw5891100 1.1 987227
15:00−7wsw698485 1.1 988111
18:00−8wsw712937 0.0 987162
21:00−8sw7119336 0.1 986191
3 march, wed
wed300:00−7sw569393 0.1 98683
03:00−10ese449363 0.1 98726
06:00−10ene579779 0.1 989112
09:00−14ne799590 0.4 992277
12:00−17nne6896100 0.4 994283
15:00−18nne6896100 0.6 995305
18:00−19n4798100 0.3 996235
21:00−20nnw4699100 0.4 996147
4 march, thu
thu400:00−22nw44100100 0.1 99566
03:00−19nw4699100 0.1 995134
06:00−16nne4797100 0.1 994163
09:00−17ne5896100 0.4 995288
12:00−17ne5894100 0.2 996446
15:00−17ne6995100 0.4 997428
18:00−20ne6997100 0.1 998301
21:00−24nne4799100 0.1 999129
5 march, fri
fri500:00−26nne46100100 0.0 100098
03:00−26n34100100 0.1 100165
06:00−24n4699100 0.1 1002131
09:00−24n3599100 0.1 1002112
12:00−22n4696100 0.1 1004443
15:00−23nnw3498100 0.1 100586
18:00−24nnw34100100 0.1 100673
21:00−25nw33100100 0.1 100736